Regional Weather Roundup
Issued by NWS

Home | Current Version | Previous Version | Text Only | Print | Product List | Glossary On
Versions: 1 2 3 4 5 6 7 8 9 10 11 12 13 14 15 16 17 18 19 20 21 22 23 24 25 26 27 28 29 30 31 32 33 34 35 36 37 38 39 40 41 42 43 44 45 46 47 48 49 50
000
ASUS43 KTOP 151259
RWRKS

WEATHER ROUNDUP FOR KANSAS
NATIONAL WEATHER SERVICE GOODLAND KS
800 AM CDT TUE APR 15 2014

NOTE:  "FAIR" INDICATES FEW OR NO CLOUDS BELOW 12,000 FEET WITH NO
SIGNIFICANT WEATHER AND/OR OBSTRUCTIONS TO VISIBILITY.

KSZ001>006-013>018-027>032-041>047-151400-
NORTHWEST KANSAS

CITY           SKY/WX    TMP DP  RH WIND       PRES   REMARKS
GOODLAND       CLEAR     29  15  56 SW18      30.06F WCI  16
HAYS           SUNNY     23  16  74 CALM      30.15S
HILL CITY      SUNNY     25  20  81 W3        30.13F
RUSSELL        SUNNY     23  16  74 SW5       30.16R
$$

KSZ061>065-074>080-084>089-151400-
SOUTHWEST KANSAS

CITY           SKY/WX    TMP DP  RH WIND       PRES   REMARKS
DODGE CITY     CLEAR     30  17  58 W10       30.18S WCI  21
ELKHART          N/A     31  16  54 SW13        N/A  WCI  21
GARDEN CITY    CLEAR     27  20  75 SW7       30.16S
GREAT BEND     SUNNY     25  14  63 SW3       30.18R
LIBERAL        CLEAR     28  19  69 SW9       30.20S
$$

KSZ066>073-081>083-090>101-151400-
SOUTHEAST KANSAS

CITY           SKY/WX    TMP DP  RH WIND       PRES   REMARKS
CHANUTE        SUNNY     32  30  92 CALM      30.22R
COFFEYVILLE    SUNNY     30  28  92 CALM      30.23R
HUTCHINSON     SUNNY     28  20  71 CALM      30.20R
MEDICINE LODGE   N/A     29  21  72 N3        30.21S
NEWTON         SUNNY     28  18  64 CALM      30.22R
PARSONS        SUNNY     29  27  92 CALM      30.23R
WICHITA INTL   SUNNY     31  22  69 CALM      30.21R
WICHITA JABRA  SUNNY     32  21  64 W5        30.20R
WINFIELD       SUNNY     28  24  85 CALM      30.23R
$$

KSZ007>012-019>026-033>040-048>060-102>105-151400-
NORTHEAST KANSAS

CITY           SKY/WX    TMP DP  RH WIND       PRES   REMARKS
CONCORDIA      SUNNY     26  24  92 CALM      30.18S
EMPORIA        SUNNY     29  25  85 CALM      30.20S
LAWRENCE       SUNNY     28  26  92 NW5       30.24R
MANHATTAN      SUNNY     27  24  89 CALM      30.22R
OLATHE IND     SUNNY     31  27  85 CALM      30.23R
OLATHE EXE     SUNNY     30  27  88 CALM      30.22R
SALINA         SUNNY     29  22  75 CALM      30.20R
TOPEKA BILLARD SUNNY     31  27  85 CALM      30.23R
TOPEKA FORBES  SUNNY     30  26  85 CALM      30.21S
$$



USA.gov is the U.S. government's official web portal to all federal, state and local government web resources and services.